User: anonymous   Login
Location: CNYAC Observatory
(43.2150°N, 74.9500°W)
Time: 20:10:59
(UTC-04:00)
Language:

Cosmos 1300 Rocket - Orbit

View from above orbital plane
View from above orbital plane
View from above satellite
View from above satellite

Ground track
Ground track

The orbit data is extracted from the following two-line orbital elements,

1 12786U 81082B   16270.00512905  .00000147  00000-0  14444-4 0  9994
2 12786  82.4899 216.6759 0018831  50.3650 309.9223 14.84640182895617
Epoch (UTC): 26 September 2016 00:07:23
Eccentricity: 0.0018831
inclination: 82.4899°
perigee height: 601 km
apogee height: 628 km
right ascension of ascending node: 216.6759°
argument of perigee: 50.3650°
revolutions per day: 14.84640182
mean anomaly at epoch: 309.9223°
orbit number at epoch: 89561

The dashed part of the orbit path shows where the satellite is in the earth's shadow,  

DLR